| time (UTC) | temp F | wind direction | speed MPH | gust MPH | rain 1hr in | rain 24hr in | rain mn in | humidity % | barometer mb |
| 20260506062003 | 56 | 75 | 1.0 | 2.0 | 0.00 | 0.00 | 0.00 | 85 | 1020.1 |
| 20260506061504 | 55 | 56 | 1.0 | 3.0 | 0.00 | 0.00 | 0.00 | 86 | 1020.2 |
| 20260506061004 | 55 | 257 | 0.0 | 1.0 | 0.00 | 0.00 | 0.00 | 86 | 1020.2 |
| 20260506060504 | 54 | 257 | 0.0 | 1.0 | 0.00 | 0.00 | 0.00 | 86 | 1020.2 |
| 20260506051004 | 53 | 257 | 0.0 | 1.0 | 0.00 | 0.00 | 0.00 | 86 | 1020.0 |
| 20260506050505 | 53 | 257 | 0.0 | 1.0 | 0.00 | 0.00 | 0.00 | 86 | 1020.1 |
| 20260506045004 | 53 | 257 | 0.0 | 0.0 | 0.00 | 0.00 | 0.00 | 85 | 1019.9 |
| 20260506044004 | 53 | 257 | 0.0 | 1.0 | 0.00 | 0.00 | 0.00 | 85 | 1019.9 |
| 20260506043504 | 53 | 257 | 1.0 | 1.0 | 0.00 | 0.00 | 0.00 | 85 | 1020.0 |
| 20260506043004 | 53 | 257 | 0.0 | 1.0 | 0.00 | 0.00 | 0.00 | 86 | 1020.0 |
| 20260506042504 | 53 | 257 | 0.0 | 1.0 | 0.00 | 0.00 | 0.00 | 87 | 1019.9 |
| 20260506042004 | 53 | 257 | 0.0 | 0.0 | 0.00 | 0.00 | 0.00 | 87 | 1019.8 |
| 20260506041504 | 53 | 257 | 0.0 | 0.0 | 0.00 | 0.00 | 0.00 | 87 | 1019.9 |
| 20260506040503 | 52 | 257 | 0.0 | 0.0 | 0.00 | 0.00 | 0.00 | 86 | 1019.9 |
| 20260506040004 | 52 | 257 | 0.0 | 0.0 | 0.00 | 0.00 | 0.00 | 86 | 1019.9 |
| 20260506035504 | 52 | 257 | 0.0 | 1.0 | 0.00 | 0.00 | 0.00 | 86 | 1020.0 |
| 20260506035004 | 52 | 257 | 0.0 | 1.0 | 0.00 | 0.00 | 0.00 | 86 | 1020.1 |
| 20260506034504 | 52 | 257 | 0.0 | 2.0 | 0.00 | 0.00 | 0.00 | 86 | 1020.2 |
| 20260506034003 | 51 | 257 | 0.0 | 0.0 | 0.00 | 0.00 | 0.00 | 85 | 1020.2 |
| 20260506033504 | 51 | 257 | 1.0 | 1.0 | 0.00 | 0.00 | 0.00 | 85 | 1020.5 |
| 20260506032003 | 52 | 258 | 0.0 | 1.0 | 0.00 | 0.00 | 0.00 | 86 | 1020.2 |
| 20260506031504 | 52 | 262 | 1.0 | 2.0 | 0.00 | 0.00 | 0.00 | 86 | 1020.1 |
| 20260506031003 | 52 | 262 | 1.0 | 1.0 | 0.00 | 0.00 | 0.00 | 86 | 1020.3 |
| 20260506030504 | 51 | 347 | 1.0 | 3.0 | 0.00 | 0.00 | 0.00 | 86 | 1020.2 |
| 20260506025504 | 52 | 240 | 0.0 | 1.0 | 0.00 | 0.00 | 0.00 | 86 | 1020.4 |
| 20260506024504 | 52 | 246 | 1.0 | 2.0 | 0.00 | 0.00 | 0.00 | 85 | 1020.4 |
| 20260506024004 | 52 | 231 | 0.0 | 3.0 | 0.00 | 0.00 | 0.00 | 85 | 1020.3 |
| 20260506023503 | 51 | 244 | 1.0 | 2.0 | 0.00 | 0.00 | 0.00 | 86 | 1020.3 |
| 20260506023004 | 51 | 283 | 1.0 | 2.0 | 0.00 | 0.00 | 0.00 | 86 | 1020.3 |
| 20260506022503 | 52 | 235 | 1.0 | 1.0 | 0.00 | 0.00 | 0.00 | 86 | 1020.5 |
| 20260506022004 | 52 | 196 | 1.0 | 2.0 | 0.00 | 0.00 | 0.00 | 86 | 1020.4 |
| 20260506021003 | 52 | 191 | 0.0 | 1.0 | 0.00 | 0.00 | 0.00 | 85 | 1020.3 |
| 20260506020504 | 52 | 189 | 0.0 | 0.0 | 0.00 | 0.00 | 0.00 | 84 | 1020.3 |
| 20260506020004 | 53 | 189 | 0.0 | 1.0 | 0.00 | 0.00 | 0.00 | 84 | 1020.3 |
| 20260506015504 | 53 | 193 | 0.0 | 1.0 | 0.00 | 0.00 | 0.00 | 83 | 1020.3 |
| 20260506015004 | 53 | 195 | 0.0 | 1.0 | 0.00 | 0.00 | 0.00 | 83 | 1020.1 |
| 20260506014503 | 53 | 232 | 0.0 | 2.0 | 0.00 | 0.00 | 0.00 | 84 | 1020.1 |
| 20260506014004 | 54 | 224 | 0.0 | 1.0 | 0.00 | 0.00 | 0.00 | 84 | 1020.2 |
| 20260506013503 | 54 | 243 | 0.0 | 2.0 | 0.00 | 0.00 | 0.00 | 84 | 1020.2 |
| 20260506013004 | 54 | 203 | 1.0 | 2.0 | 0.00 | 0.00 | 0.00 | 84 | 1020.2 |
| 20260506012503 | 54 | 24 | 1.0 | 2.0 | 0.00 | 0.00 | 0.00 | 85 | 1020.4 |
| 20260506012004 | 53 | 13 | 0.0 | 1.0 | 0.00 | 0.00 | 0.00 | 85 | 1020.3 |
| 20260506011505 | 53 | 12 | 0.0 | 0.0 | 0.00 | 0.00 | 0.00 | 85 | 1020.4 |
| 20260506011004 | 53 | 12 | 0.0 | 0.0 | 0.00 | 0.00 | 0.00 | 85 | 1020.4 |
| 20260506010504 | 53 | 12 | 0.0 | 0.0 | 0.00 | 0.00 | 0.00 | 85 | 1020.5 |
| 20260506005504 | 53 | 12 | 1.0 | 1.0 | 0.00 | 0.00 | 0.00 | 84 | 1020.4 |
| 20260506004504 | 54 | 256 | 0.0 | 1.0 | 0.00 | 0.00 | 0.00 | 82 | 1020.4 |
| 20260506004004 | 54 | 256 | 0.0 | 1.0 | 0.00 | 0.00 | 0.00 | 81 | 1020.3 |
| 20260506003503 | 54 | 256 | 0.0 | 1.0 | 0.00 | 0.00 | 0.00 | 80 | 1020.2 |
| 20260506003004 | 54 | 255 | 0.0 | 1.0 | 0.00 | 0.00 | 0.00 | 79 | 1020.5 |
| 20260506002504 | 54 | 254 | 0.0 | 1.0 | 0.00 | 0.00 | 0.00 | 79 | 1020.5 |
| 20260506002004 | 54 | 22 | 0.0 | 1.0 | 0.00 | 0.00 | 0.00 | 78 | 1020.5 |
| 20260506001504 | 54 | 28 | 0.0 | 1.0 | 0.00 | 0.00 | 0.00 | 77 | 1020.4 |
| 20260506000504 | 55 | 40 | 1.0 | 2.0 | 0.00 | 0.00 | 0.00 | 76 | 1020.7 |
| 20260506000004 | 55 | 44 | 0.0 | 2.0 | 0.00 | 0.00 | 0.00 | 75 | 1020.5 |
| 20260505235504 | 55 | 253 | 1.0 | 1.0 | 0.00 | 0.00 | 0.00 | 75 | 1020.5 |
| 20260505235004 | 55 | 252 | 0.0 | 1.0 | 0.00 | 0.00 | 0.00 | 75 | 1020.5 |
| 20260505234503 | 55 | 252 | 0.0 | 1.0 | 0.00 | 0.00 | 0.00 | 74 | 1020.7 |
| 20260505234004 | 56 | 235 | 1.0 | 2.0 | 0.00 | 0.00 | 0.00 | 74 | 1020.3 |
| 20260505233003 | 55 | 208 | 0.0 | 1.0 | 0.00 | 0.00 | 0.00 | 71 | 1020.5 |
| 20260505232504 | 55 | 208 | 0.0 | 2.0 | 0.00 | 0.00 | 0.00 | 70 | 1020.5 |
| 20260505232003 | 56 | 233 | 1.0 | 2.0 | 0.00 | 0.00 | 0.00 | 69 | 1020.3 |
| 20260505231505 | 56 | 188 | 1.0 | 3.0 | 0.00 | 0.00 | 0.00 | 68 | 1020.0 |
| 20260505231004 | 56 | 226 | 1.0 | 2.0 | 0.00 | 0.00 | 0.00 | 68 | 1020.1 |
| 20260505230504 | 56 | 235 | 0.0 | 1.0 | 0.00 | 0.00 | 0.00 | 68 | 1020.0 |
| 20260505230004 | 57 | 235 | 0.0 | 2.0 | 0.00 | 0.00 | 0.00 | 67 | 1020.1 |
| 20260505225004 | 57 | 220 | 2.0 | 3.0 | 0.00 | 0.00 | 0.00 | 65 | 1019.8 |
| 20260505224004 | 58 | 46 | 2.0 | 3.0 | 0.00 | 0.00 | 0.00 | 65 | 1019.8 |
| 20260505223504 | 58 | 58 | 0.0 | 5.0 | 0.00 | 0.00 | 0.00 | 64 | 1019.8 |
| 20260505223003 | 57 | 84 | 2.0 | 3.0 | 0.00 | 0.00 | 0.00 | 66 | 1019.9 |
| 20260505222504 | 58 | 41 | 3.0 | 6.0 | 0.00 | 0.00 | 0.00 | 65 | 1019.9 |
| 20260505222004 | 58 | 54 | 2.0 | 5.0 | 0.00 | 0.00 | 0.00 | 65 | 1019.4 |
| 20260505221003 | 57 | 227 | 2.0 | 3.0 | 0.00 | 0.00 | 0.00 | 63 | 1019.8 |
| 20260505220504 | 57 | 212 | 0.0 | 1.0 | 0.00 | 0.00 | 0.00 | 67 | 1019.5 |
| 20260505220004 | 57 | 212 | 1.0 | 2.0 | 0.00 | 0.00 | 0.00 | 67 | 1019.6 |
| 20260505215503 | 57 | 204 | 1.0 | 2.0 | 0.00 | 0.00 | 0.00 | 66 | 1019.7 |
| 20260505215004 | 58 | 218 | 1.0 | 2.0 | 0.00 | 0.00 | 0.00 | 66 | 1019.7 |
| 20260505214503 | 58 | 188 | 1.0 | 3.0 | 0.00 | 0.00 | 0.00 | 66 | 1019.7 |
| 20260505214004 | 58 | 194 | 1.0 | 3.0 | 0.00 | 0.00 | 0.00 | 66 | 1019.8 |
| 20260505213503 | 58 | 191 | 1.0 | 2.0 | 0.00 | 0.00 | 0.00 | 65 | 1019.7 |
| 20260505213004 | 58 | 177 | 1.0 | 3.0 | 0.00 | 0.00 | 0.00 | 65 | 1019.5 |
| 20260505212504 | 58 | 224 | 1.0 | 3.0 | 0.00 | 0.00 | 0.00 | 64 | 1019.8 |
| 20260505212004 | 58 | 188 | 1.0 | 2.0 | 0.00 | 0.00 | 0.00 | 63 | 1019.7 |
| 20260505211504 | 58 | 195 | 1.0 | 2.0 | 0.00 | 0.00 | 0.00 | 63 | 1019.7 |
| 20260505210504 | 58 | 213 | 1.0 | 3.0 | 0.00 | 0.00 | 0.00 | 63 | 1019.6 |
| 20260505205503 | 58 | 56 | 1.0 | 3.0 | 0.00 | 0.00 | 0.00 | 63 | 1019.5 |
| 20260505204504 | 58 | 74 | 1.0 | 3.0 | 0.00 | 0.00 | 0.00 | 63 | 1019.6 |
| 20260505203504 | 59 | 181 | 0.0 | 1.0 | 0.00 | 0.00 | 0.00 | 62 | 1019.5 |
| 20260505203003 | 59 | 223 | 1.0 | 2.0 | 0.00 | 0.00 | 0.00 | 61 | 1019.4 |
| 20260505202004 | 60 | 271 | 1.0 | 2.0 | 0.00 | 0.00 | 0.00 | 61 | 1019.4 |
| 20260505201505 | 60 | 263 | 0.0 | 2.0 | 0.00 | 0.00 | 0.00 | 59 | 1019.1 |
| 20260505200504 | 61 | 198 | 1.0 | 2.0 | 0.00 | 0.00 | 0.00 | 54 | 1018.8 |
| 20260505200004 | 61 | 212 | 2.0 | 5.0 | 0.00 | 0.00 | 0.00 | 54 | 1018.7 |
| 20260505195004 | 60 | 213 | 2.0 | 5.0 | 0.00 | 0.00 | 0.00 | 56 | 1018.8 |
| 20260505194504 | 61 | 238 | 1.0 | 3.0 | 0.00 | 0.00 | 0.00 | 59 | 1018.7 |
| 20260505193504 | 61 | 233 | 2.0 | 3.0 | 0.00 | 0.00 | 0.00 | 60 | 1018.5 |
| 20260505192504 | 61 | 269 | 1.0 | 3.0 | 0.00 | 0.00 | 0.00 | 62 | 1018.4 |
| 20260505192004 | 61 | 195 | 1.0 | 2.0 | 0.00 | 0.00 | 0.00 | 62 | 1018.3 |
| 20260505191005 | 62 | 228 | 0.0 | 2.0 | 0.00 | 0.00 | 0.00 | 58 | 1017.8 |
| 20260505190504 | 62 | 225 | 2.0 | 6.0 | 0.00 | 0.00 | 0.00 | 58 | 1017.8 |
| 20260505190004 | 62 | 268 | 2.0 | 3.0 | 0.00 | 0.00 | 0.00 | 59 | 1017.8 |
| 20260505185504 | 62 | 228 | 0.0 | 2.0 | 0.00 | 0.00 | 0.00 | 58 | 1017.8 |
| 20260505185004 | 62 | 235 | 2.0 | 3.0 | 0.00 | 0.00 | 0.00 | 57 | 1017.8 |
| 20260505184504 | 62 | 209 | 2.0 | 6.0 | 0.00 | 0.00 | 0.00 | 55 | 1017.7 |
| 20260505183503 | 62 | 261 | 1.0 | 3.0 | 0.00 | 0.00 | 0.00 | 57 | 1017.8 |
| 20260505183004 | 62 | 225 | 3.0 | 5.0 | 0.00 | 0.00 | 0.00 | 57 | 1017.6 |
| 20260505182504 | 62 | 220 | 1.0 | 2.0 | 0.00 | 0.00 | 0.00 | 58 | 1017.6 |
| 20260505181504 | 62 | 233 | 2.0 | 5.0 | 0.00 | 0.00 | 0.00 | 57 | 1017.4 |
| 20260505181003 | 63 | 226 | 3.0 | 6.0 | 0.00 | 0.00 | 0.00 | 57 | 1017.5 |
| 20260505180503 | 63 | 235 | 3.0 | 8.0 | 0.00 | 0.00 | 0.00 | 55 | 1017.4 |
| 20260505180003 | 63 | 229 | 5.0 | 9.0 | 0.00 | 0.00 | 0.00 | 56 | 1017.3 |
| 20260505175503 | 63 | 231 | 2.0 | 6.0 | 0.00 | 0.00 | 0.00 | 59 | 1017.4 |
| 20260505175004 | 63 | 241 | 3.0 | 8.0 | 0.00 | 0.00 | 0.00 | 55 | 1017.4 |
| 20260505174004 | 64 | 230 | 2.0 | 6.0 | 0.00 | 0.00 | 0.00 | 56 | 1017.2 |
| 20260505173504 | 64 | 239 | 5.0 | 10.0 | 0.00 | 0.00 | 0.00 | 54 | 1017.1 |
| 20260505173004 | 64 | 238 | 3.0 | 7.0 | 0.00 | 0.00 | 0.00 | 55 | 1017.0 |
| 20260505172504 | 64 | 232 | 3.0 | 7.0 | 0.00 | 0.00 | 0.00 | 55 | 1016.8 |
| 20260505172004 | 64 | 240 | 3.0 | 12.0 | 0.00 | 0.00 | 0.00 | 56 | 1016.9 |
| 20260505165504 | 66 | 215 | 6.0 | 9.0 | 0.00 | 0.00 | 0.00 | 54 | 1016.5 |
| 20260505165004 | 66 | 243 | 4.0 | 12.0 | 0.00 | 0.00 | 0.00 | 54 | 1016.4 |
| 20260505164503 | 66 | 199 | 2.0 | 8.0 | 0.00 | 0.00 | 0.00 | 54 | 1016.3 |
| 20260505164003 | 66 | 206 | 2.0 | 9.0 | 0.00 | 0.00 | 0.00 | 54 | 1016.5 |
| 20260505163504 | 66 | 212 | 4.0 | 9.0 | 0.00 | 0.00 | 0.00 | 54 | 1016.4 |
| 20260505163004 | 67 | 217 | 5.0 | 10.0 | 0.00 | 0.00 | 0.00 | 53 | 1016.4 |
| 20260505162504 | 67 | 247 | 3.0 | 10.0 | 0.00 | 0.00 | 0.00 | 52 | 1016.3 |
| 20260505162004 | 67 | 288 | 2.0 | 10.0 | 0.00 | 0.00 | 0.00 | 52 | 1016.3 |
| 20260505161504 | 67 | 248 | 3.0 | 9.0 | 0.00 | 0.00 | 0.00 | 54 | 1016.3 |
| 20260505161006 | 67 | 230 | 4.0 | 9.0 | 0.00 | 0.00 | 0.00 | 55 | 1016.3 |
| 20260505160504 | 67 | 248 | 4.0 | 8.0 | 0.00 | 0.00 | 0.00 | 54 | 1016.2 |
| 20260505152504 | 69 | 248 | 2.0 | 8.0 | 0.00 | 0.00 | 0.00 | 52 | 1016.1 |
| 20260505152004 | 69 | 231 | 5.0 | 8.0 | 0.00 | 0.00 | 0.00 | 49 | 1016.0 |
| 20260505151504 | 68 | 218 | 4.0 | 10.0 | 0.00 | 0.00 | 0.00 | 49 | 1016.3 |
| 20260505151004 | 68 | 224 | 3.0 | 8.0 | 0.00 | 0.00 | 0.00 | 54 | 1016.3 |
| 20260505150504 | 68 | 255 | 5.0 | 12.0 | 0.00 | 0.00 | 0.00 | 54 | 1016.2 |
| 20260505140504 | 69 | 247 | 6.0 | 14.0 | 0.00 | 0.00 | 0.00 | 53 | 1016.4 |
| 20260505125004 | 70 | 213 | 3.0 | 10.0 | 0.00 | 0.00 | 0.00 | 42 | 1016.7 |
| 20260505124003 | 69 | 241 | 2.0 | 15.0 | 0.00 | 0.01 | 0.00 | 38 | 1017.1 |
| 20260505123503 | 70 | 203 | 5.0 | 12.0 | 0.00 | 0.02 | 0.00 | 36 | 1017.0 |
| 20260505123004 | 70 | 194 | 3.0 | 8.0 | 0.00 | 0.02 | 0.00 | 37 | 1017.0 |
| 20260505122503 | 70 | 230 | 6.0 | 12.0 | 0.00 | 0.03 | 0.00 | 37 | 1017.1 |
| 20260505122004 | 69 | 249 | 7.0 | 12.0 | 0.00 | 0.05 | 0.00 | 36 | 1017.1 |
| 20260505121504 | 70 | 216 | 3.0 | 7.0 | 0.00 | 0.07 | 0.00 | 38 | 1017.0 |
| 20260505121004 | 69 | 245 | 4.0 | 12.0 | 0.00 | 0.07 | 0.00 | 38 | 1017.2 |
| 20260505120503 | 68 | 232 | 6.0 | 14.0 | 0.00 | 0.07 | 0.00 | 37 | 1017.3 |
| 20260505120004 | 68 | 210 | 4.0 | 9.0 | 0.00 | 0.07 | 0.00 | 39 | 1017.2 |
| 20260505115503 | 68 | 220 | 3.0 | 10.0 | 0.00 | 0.07 | 0.00 | 40 | 1017.5 |
| 20260505115003 | 69 | 254 | 3.0 | 8.0 | 0.00 | 0.07 | 0.00 | 39 | 1017.4 |
| 20260505114503 | 70 | 267 | 5.0 | 8.0 | 0.00 | 0.07 | 0.00 | 38 | 1017.1 |
| 20260505114004 | 69 | 224 | 2.0 | 9.0 | 0.00 | 0.07 | 0.00 | 38 | 1017.6 |
| 20260505113504 | 69 | 248 | 3.0 | 9.0 | 0.00 | 0.07 | 0.00 | 38 | 1017.5 |
| 20260505113004 | 69 | 246 | 3.0 | 10.0 | 0.00 | 0.07 | 0.00 | 39 | 1017.5 |
| 20260505112503 | 70 | 274 | 2.0 | 7.0 | 0.00 | 0.07 | 0.00 | 37 | 1017.6 |
| 20260505112003 | 70 | 176 | 3.0 | 8.0 | 0.00 | 0.07 | 0.00 | 36 | 1017.5 |
| 20260505111504 | 70 | 225 | 3.0 | 14.0 | 0.00 | 0.07 | 0.00 | 35 | 1017.5 |
| 20260505111003 | 69 | 189 | 5.0 | 12.0 | 0.00 | 0.07 | 0.00 | 38 | 1017.7 |
| 20260505110504 | 68 | 181 | 2.0 | 8.0 | 0.00 | 0.07 | 0.00 | 40 | 1018.0 |
| 20260505102004 | 67 | 226 | 5.0 | 10.0 | 0.00 | 0.07 | 0.00 | 40 | 1018.5 |
| 20260505101504 | 69 | 221 | 6.0 | 10.0 | 0.00 | 0.07 | 0.00 | 39 | 1018.1 |
| 20260505101004 | 68 | 247 | 1.0 | 12.0 | 0.00 | 0.07 | 0.00 | 40 | 1018.3 |
| 20260505100504 | 68 | 206 | 2.0 | 12.0 | 0.00 | 0.07 | 0.00 | 39 | 1018.1 |
| 20260505100004 | 67 | 213 | 2.0 | 5.0 | 0.00 | 0.07 | 0.00 | 40 | 1018.5 |
| 20260505095004 | 67 | 245 | 2.0 | 6.0 | 0.00 | 0.07 | 0.00 | 40 | 1018.5 |
| 20260505094504 | 67 | 260 | 2.0 | 3.0 | 0.00 | 0.07 | 0.00 | 39 | 1018.4 |
| 20260505093503 | 66 | 46 | 3.0 | 10.0 | 0.00 | 0.07 | 0.00 | 40 | 1018.5 |
| 20260505093004 | 65 | 47 | 5.0 | 10.0 | 0.00 | 0.07 | 0.00 | 42 | 1018.7 |
| 20260505092504 | 67 | 34 | 5.0 | 8.0 | 0.00 | 0.07 | 0.00 | 44 | 1018.5 |
| 20260505092004 | 66 | 318 | 2.0 | 7.0 | 0.00 | 0.07 | 0.00 | 41 | 1018.6 |
| 20260505091504 | 67 | 224 | 2.0 | 7.0 | 0.00 | 0.07 | 0.00 | 41 | 1018.5 |
| 20260505091004 | 66 | 230 | 3.0 | 6.0 | 0.00 | 0.07 | 0.00 | 40 | 1018.5 |
| 20260505090504 | 66 | 55 | 2.0 | 6.0 | 0.00 | 0.07 | 0.00 | 41 | 1018.5 |
| 20260505090004 | 65 | 35 | 5.0 | 9.0 | 0.00 | 0.07 | 0.00 | 42 | 1018.6 |
| 20260505085004 | 66 | 239 | 3.0 | 8.0 | 0.00 | 0.07 | 0.00 | 42 | 1018.6 |
| 20260505084503 | 66 | 6 | 5.0 | 9.0 | 0.00 | 0.07 | 0.00 | 43 | 1018.8 |
| 20260505083004 | 65 | 249 | 5.0 | 10.0 | 0.00 | 0.07 | 0.00 | 44 | 1018.7 |
| 20260505082503 | 66 | 55 | 2.0 | 5.0 | 0.00 | 0.07 | 0.00 | 48 | 1018.9 |
| 20260505082004 | 65 | 54 | 0.0 | 5.0 | 0.00 | 0.07 | 0.00 | 47 | 1018.8 |
| 20260505081503 | 65 | 60 | 2.0 | 5.0 | 0.00 | 0.07 | 0.00 | 47 | 1018.9 |
| 20260505081004 | 65 | 3 | 2.0 | 5.0 | 0.00 | 0.07 | 0.00 | 47 | 1018.9 |
| 20260505080504 | 66 | 224 | 1.0 | 5.0 | 0.00 | 0.07 | 0.00 | 48 | 1019.0 |
| 20260505080005 | 65 | 69 | 1.0 | 5.0 | 0.00 | 0.07 | 0.00 | 48 | 1018.9 |
| 20260505075504 | 64 | 248 | 2.0 | 2.0 | 0.00 | 0.07 | 0.00 | 50 | 1019.0 |
| 20260505075004 | 65 | 236 | 2.0 | 5.0 | 0.00 | 0.07 | 0.00 | 48 | 1019.1 |
| 20260505074503 | 64 | 202 | 1.0 | 3.0 | 0.00 | 0.07 | 0.00 | 50 | 1019.1 |
| 20260505074004 | 64 | 232 | 0.0 | 3.0 | 0.00 | 0.07 | 0.00 | 48 | 1019.1 |
| 20260505073504 | 63 | 215 | 1.0 | 3.0 | 0.00 | 0.07 | 0.00 | 50 | 1019.3 |
| 20260505073003 | 62 | 240 | 1.0 | 5.0 | 0.00 | 0.07 | 0.00 | 51 | 1019.3 |
| 20260505072004 | 62 | 232 | 2.0 | 5.0 | 0.00 | 0.07 | 0.00 | 51 | 1019.4 |
| 20260505071004 | 62 | 208 | 4.0 | 6.0 | 0.00 | 0.07 | 0.00 | 50 | 1019.4 |
| 20260505070503 | 62 | 241 | 1.0 | 3.0 | 0.00 | 0.07 | 0.00 | 55 | 1019.5 |
| 20260505070004 | 61 | 238 | 0.0 | 2.0 | 0.00 | 0.07 | 0.00 | 60 | 1019.5 |